This demonstration page uses our WeatherBlox Daily Observations layout. Learn more.

Left ArrowRight Arrow

41.86663, -103.66717

Hourly Observations for December 6, 2020

Temp ( °F °C ) Dew Point ( °F °C ) Humidity (%) Winds ( mph kmh ) Pressure ( in mb ) Visibility ( mi km ) Precip ( " mm )
12:53 am 00:53 Clear 21 -6.1 12 -11.1 68 68 NNW 6 9 30.28 1025 10 16 0.00 0.00
1:53 am 01:53 Clear 22 -5.6 12 -11.1 66 66 NW 7 11 30.26 1025 10 16 0.00 0.00
2:53 am 02:53 Clear 18 -7.8 11 -11.7 74 74 W 5 7 30.26 1025 10 16 0.00 0.00
3:53 am 03:53 Clear 19 -7.2 11 -11.7 71 71 NW 7 11 30.26 1025 10 16 0.00 0.00
4:53 am 04:53 Clear 19 -7.2 11 -11.7 71 71 WNW 3 6 30.28 1025 10 16 0.00 0.00
5:53 am 05:53 Clear 20 -6.7 11 -11.7 68 68 WNW 9 15 30.29 1026 10 16 0.00 0.00
6:53 am 06:53 Clear 19 -7.2 11 -11.7 71 71 WNW 6 9 30.30 1026 10 16 0.00 0.00
7:53 am 07:53 Sunny 22 -5.6 12 -11.1 66 66 WNW 8 13 30.30 1026 10 16 0.00 0.00
8:53 am 08:53 Sunny 29 -1.7 15 -9.4 56 56 WNW 9 15 30.32 1027 10 16 0.00 0.00
9:53 am 09:53 Sunny 39 3.9 16 -8.9 39 39 WNW 10 17 30.28 1025 10 16 0.00 0.00
10:53 am 10:53 Sunny 45 7.2 16 -8.9 31 31 WNW 13 20 30.25 1025 10 16 0.00 0.00
11:53 am 11:53 Sunny 50 10 16 -8.9 26 26 WNW 10 17 30.23 1024 10 16 0.00 0.00
12:53 pm 12:53 Sunny 55 12.8 16 -8.9 21 21 W 13 20 30.19 1022 10 16 0.00 0.00
1:53 pm 13:53 Sunny 60 15.6 15 -9.4 17 17 WNW 8 13 30.16 1021 10 16 0.00 0.00
2:53 pm 14:53 Sunny 61 16.1 11 -11.7 14 14 WNW 9 15 30.17 1022 10 16 0.00 0.00
3:53 pm 15:53 Sunny 55 12.8 12 -11.1 18 18 W 8 13 30.20 1023 10 16 0.00 0.00
4:53 pm 16:53 Clear 45 7.2 12 -11.1 26 26 NW 6 9 30.25 1024 10 16 0.00 0.00
5:53 pm 17:53 Clear 34 1.1 10 -12.2 37 37 N 8 13 30.29 1026 10 16 0.00 0.00
7:53 pm 19:53 Clear 30 -1.1 9 -12.8 41 41 NW 8 13 30.33 1027 10 16 0.00 0.00
8:53 pm 20:53 Clear 29 -1.7 11 -11.7 47 47 NW 9 15 30.32 1027 10 16 0.00 0.00
9:53 pm 21:53 Clear 29 -1.7 11 -11.7 47 47 NW 10 17 30.30 1026 10 16 0.00 0.00
10:53 pm 22:53 Clear 29 -1.7 11 -11.7 47 47 NW 10 17 30.30 1026 10 16 0.00 0.00
11:53 pm 23:53 Clear 27 -2.8 10 -12.2 49 49 NW 8 13 30.29 1026 10 16 0.00 0.00

Powered by AerisWeather